Salina, KS

5:05 AM CST on January 19, 2017 (GMT -0600)
Salina Municipal

Weather History for KSLN - January, 2013

Change the Weather History Date:

Friday, January 11, 2013

  Actual Average Record
Temperature  
Mean Temperature 46 °F 31 °F  
Max Temperature 58 °F 41 °F 72 °F (1911)
Min Temperature 33 °F 20 °F -22 °F (1918)
Degree Days  
Heating Degree Days 19 34  
Month to date heating degree days 361 374  
Since 1 July heating degree days 2138 2338  
Cooling Degree Days 0 0  
Month to date cooling degree days 0 0  
Year to date cooling degree days 0 0  
Moisture  
Dew Point 39 °F    
Average Humidity 60    
Maximum Humidity 93    
Minimum Humidity 26    
Precipitation  
Precipitation 0.00 in 0.02 in 0.10 in (1968)
Month to date precipitation 0.81 0.17  
Year to date precipitation 0.81 0.17  
Sea Level Pressure  
Sea Level Pressure 29.61 in    
Wind  
Wind Speed 19 mph (SSW)    
Max Wind Speed 38 mph    
Max Gust Speed 44 mph    
Visibility 8 miles    
Events Snow    
T = Trace of Precipitation, MM = Missing Value Source: NWS Daily Summary

Daily Weather History Graph

Daily Weather History Graph

Search for Another Location

Airport or City:

Trip Planner

Search our weather history database for the weather conditions in past years. The results will help you decide how hot, cold, wet, or windy it might be!

Date:

Astronomy

Jan. 11, 2013 Rise Set
Actual Time 7:48 AM CST 5:29 PM CST
Civil Twilight 7:19 AM CST 5:58 PM CST
Nautical Twilight 6:46 AM CST 6:31 PM CST
Astronomical Twilight 6:14 AM CST 7:03 PM CST
Moon 7:23 AM CST (1/11) 5:48 PM CST (1/11)
Length of Visible Light 10h 39m
Length of Day
9h 40m
Waning Crescent, 0% of the Moon is Illuminated
Jan 11
Waning Crescent
Jan 11
New
Jan 18
First Quarter
Jan 26
Full
Feb 3
Last Quarter

Hourly Weather History & Observations

Time (CST) Temp. Windchill Dew Point Humidity Pressure Visibility Wind Dir Wind Speed Gust Speed Precip Events Conditions
12:17 AM 44.6 °F 39.2 °F 42.8 °F 93% 29.71 in 1.2 mi South 10.4 mph - N/A   Overcast
12:40 AM 44.6 °F 37.8 °F 42.8 °F 93% 29.71 in 2.0 mi South 15.0 mph 23.0 mph N/A   Overcast
12:53 AM 44.1 °F 39.0 °F 43.0 °F 96% 29.72 in 2.0 mi South 9.2 mph - N/A   Overcast
1:26 AM 44.6 °F 39.2 °F 42.8 °F 93% 29.69 in 3.0 mi South 10.4 mph - N/A   Overcast
1:53 AM 45.0 °F 37.9 °F 43.0 °F 93% 29.69 in 5.0 mi South 16.1 mph 19.6 mph N/A   Overcast
2:16 AM 46.4 °F 41.1 °F 42.8 °F 87% 29.67 in 9.0 mi South 11.5 mph - N/A   Overcast
2:53 AM 46.0 °F 40.6 °F 43.0 °F 89% 29.65 in 8.0 mi SSE 11.5 mph - N/A   Overcast
3:53 AM 46.9 °F - 44.1 °F 90% 29.61 in 8.0 mi South 13.8 mph 23.0 mph N/A   Overcast
4:37 AM 46.4 °F 39.8 °F 44.6 °F 93% 29.57 in 9.0 mi South 16.1 mph - N/A   Overcast
4:53 AM 46.9 °F - 44.1 °F 90% 29.56 in 10.0 mi South 13.8 mph 23.0 mph N/A   Overcast
5:53 AM 46.9 °F - 43.0 °F 86% 29.55 in 10.0 mi South 15.0 mph 21.9 mph N/A   Mostly Cloudy
6:04 AM 46.4 °F 40.7 °F 42.8 °F 87% 29.54 in 10.0 mi South 12.7 mph 21.9 mph N/A   Scattered Clouds
6:53 AM 46.0 °F 40.2 °F 42.1 °F 86% 29.55 in 10.0 mi South 12.7 mph - N/A   Clear
7:53 AM 46.0 °F 38.8 °F 42.1 °F 86% 29.55 in 10.0 mi South 18.4 mph 28.8 mph N/A   Clear
8:53 AM 46.9 °F - 42.1 °F 83% 29.56 in 10.0 mi South 16.1 mph 23.0 mph N/A   Clear
9:53 AM 48.9 °F - 42.1 °F 77% 29.55 in 10.0 mi South 20.7 mph 28.8 mph N/A   Clear
10:53 AM 48.0 °F - 42.1 °F 80% 29.55 in 10.0 mi South 16.1 mph 24.2 mph N/A   Clear
11:53 AM 48.9 °F - 42.1 °F 77% 29.53 in 10.0 mi South 20.7 mph 29.9 mph N/A   Clear
12:53 PM 50.0 °F - 42.1 °F 74% 29.48 in 10.0 mi South 20.7 mph 27.6 mph N/A   Clear
1:53 PM 51.8 °F - 42.8 °F 71% 29.46 in 10.0 mi South 21.9 mph 28.8 mph N/A   Clear
2:53 PM 52.0 °F - 42.1 °F 69% 29.45 in 10.0 mi South 20.7 mph 29.9 mph N/A   Clear
3:53 PM 54.0 °F - 43.0 °F 66% 29.45 in 10.0 mi South 19.6 mph 29.9 mph N/A   Clear
4:53 PM 55.0 °F - 43.0 °F 64% 29.47 in 10.0 mi South 17.3 mph 25.3 mph N/A   Clear
5:53 PM 54.0 °F - 43.0 °F 66% 29.51 in 10.0 mi SSW 18.4 mph - N/A   Clear
6:53 PM 57.9 °F - 37.9 °F 47% 29.54 in 10.0 mi SW 23.0 mph 33.4 mph N/A   Clear
7:53 PM 54.0 °F - 19.9 °F 26% 29.60 in 6.0 mi WSW 19.6 mph - N/A   Haze
8:12 PM 53.6 °F - 19.4 °F 26% 29.62 in 8.0 mi WSW 20.7 mph 27.6 mph N/A   Overcast
8:53 PM 51.1 °F - 18.0 °F 27% 29.65 in 9.0 mi West 24.2 mph 33.4 mph N/A   Mostly Cloudy
9:53 PM 39.0 °F 28.5 °F 32.0 °F 76% 29.76 in 10.0 mi NW 23.0 mph 29.9 mph N/A   Mostly Cloudy
10:43 PM 37.4 °F 26.1 °F 28.4 °F 70% 29.80 in 9.0 mi NW 24.2 mph - 0.00 in Snow Light Snow
10:53 PM 35.6 °F 24.8 °F 28.4 °F 75% 29.81 in 9.0 mi NW 19.6 mph - N/A Snow Light Snow
11:53 PM 34.0 °F 21.0 °F 24.1 °F 67% 29.86 in 9.0 mi NW 26.5 mph 34.5 mph 0.00 in Snow Light Snow